Radiation Dose at Monitoring Post of Fukushima Daini Nuclear Power Station
Date,Time,MP-1(microSv/h),MP-2(microSv/h),MP-3(microSv/h),MP-4(microSv/h),MP-5(microSv/h),MP-6(microSv/h),MP-7(microSv/h),Wind Direction,Wind Velocity(m/s),Rain
2016/08/11,00:00,0.429,0.251,0.443,0.402,0.369,0.205,0.176,-,CALM,No
2016/08/11,00:10,0.426,0.250,0.444,0.400,0.377,0.207,0.175,-,CALM,No
2016/08/11,00:20,0.424,0.251,0.439,0.399,0.374,0.207,0.176,south,0.8,No
2016/08/11,00:30,0.430,0.252,0.444,0.403,0.370,0.206,0.176,south,1.6,No
2016/08/11,00:40,0.427,0.250,0.443,0.401,0.375,0.207,0.175,south-southwest,1.4,No
2016/08/11,00:50,0.424,0.251,0.441,0.400,0.374,0.206,0.177,south-southwest,1.6,No
2016/08/11,01:00,0.428,0.252,0.443,0.403,0.372,0.206,0.176,south-southwest,1.7,No
2016/08/11,01:10,0.429,0.252,0.445,0.401,0.376,0.206,0.176,south-southwest,1.4,No
2016/08/11,01:20,0.423,0.250,0.440,0.400,0.374,0.208,0.178,south,0.7,No
2016/08/11,01:30,0.429,0.252,0.444,0.403,0.371,0.206,0.176,-,CALM,No
2016/08/11,01:40,0.429,0.251,0.444,0.401,0.373,0.207,0.175,-,CALM,No
2016/08/11,01:50,0.426,0.250,0.442,0.400,0.376,0.207,0.177,-,CALM,No
2016/08/11,02:00,0.430,0.252,0.443,0.403,0.372,0.206,0.177,-,CALM,No
2016/08/11,02:10,0.430,0.251,0.447,0.400,0.374,0.208,0.176,north-northeast,1.1,No
2016/08/11,02:20,0.426,0.251,0.441,0.401,0.377,0.207,0.177,northeast,1.3,No
2016/08/11,02:30,0.429,0.252,0.442,0.404,0.374,0.207,0.177,north-northeast,1.6,No
2016/08/11,02:40,0.430,0.252,0.446,0.402,0.372,0.207,0.177,north,1.9,No
2016/08/11,02:50,0.426,0.252,0.441,0.402,0.377,0.207,0.178,north,1.9,No
2016/08/11,03:00,0.427,0.253,0.443,0.403,0.374,0.207,0.176,north,1.9,No
2016/08/11,03:10,0.429,0.252,0.446,0.399,0.372,0.207,0.176,north,1.8,No
2016/08/11,03:20,0.427,0.253,0.442,0.402,0.377,0.206,0.178,north,1.7,No
2016/08/11,03:30,0.427,0.253,0.442,0.403,0.374,0.207,0.178,north-northeast,1.9,No
2016/08/11,03:40,0.430,0.252,0.446,0.401,0.370,0.208,0.177,north-northeast,2.3,No
2016/08/11,03:50,0.428,0.251,0.443,0.400,0.377,0.206,0.178,north-northeast,1.8,No
2016/08/11,04:00,0.426,0.254,0.442,0.404,0.376,0.206,0.177,north-northeast,2.1,No
2016/08/11,04:10,0.430,0.252,0.445,0.400,0.374,0.207,0.177,north-northeast,1.6,No
2016/08/11,04:20,0.430,0.250,0.443,0.400,0.374,0.207,0.179,north-northeast,2.3,No
2016/08/11,04:30,0.426,0.253,0.442,0.403,0.377,0.207,0.177,north,3.8,No
2016/08/11,04:40,0.431,0.252,0.447,0.400,0.373,0.208,0.176,north,4.2,No
2016/08/11,04:50,0.430,0.252,0.444,0.401,0.375,0.207,0.178,north,5.5,No
2016/08/11,05:00,0.425,0.253,0.441,0.405,0.378,0.207,0.177,north,5.0,No
2016/08/11,05:10,0.431,0.252,0.445,0.400,0.373,0.208,0.177,north,4.5,No
2016/08/11,05:20,0.431,0.252,0.444,0.401,0.375,0.206,0.179,north,5.8,Yes
2016/08/11,05:30,0.425,0.255,0.443,0.404,0.380,0.209,0.179,north,5.7,Yes
2016/08/11,05:40,0.430,0.255,0.444,0.399,0.375,0.208,0.179,north,4.8,No
2016/08/11,05:50,0.430,0.255,0.445,0.402,0.376,0.208,0.178,north,5.1,No
2016/08/11,06:00,0.426,0.256,0.440,0.400,0.376,0.208,0.178,north,5.2,No
2016/08/11,06:10,0.429,0.251,0.445,0.397,0.371,0.208,0.177,north,5.0,Yes
2016/08/11,06:20,0.428,0.254,0.443,0.401,0.375,0.208,0.178,north,5.6,Yes
2016/08/11,06:30,0.424,0.252,0.436,0.400,0.374,0.207,0.176,north,5.8,No
2016/08/11,06:40,0.426,0.250,0.441,0.396,0.372,0.208,0.178,north,5.9,No
2016/08/11,06:50,0.426,0.252,0.442,0.400,0.374,0.206,0.177,north,6.1,No
2016/08/11,07:00,0.423,0.250,0.437,0.398,0.374,0.207,0.176,north,6.2,No
2016/08/11,07:10,0.426,0.248,0.442,0.395,0.369,0.206,0.176,north,5.3,No
2016/08/11,07:20,0.425,0.248,0.440,0.397,0.375,0.206,0.177,north,5.0,No
2016/08/11,07:30,0.421,0.249,0.437,0.397,0.373,0.205,0.175,north,4.7,No
2016/08/11,07:40,0.423,0.248,0.438,0.394,0.369,0.206,0.174,north,4.5,No
2016/08/11,07:50,0.424,0.248,0.441,0.397,0.373,0.205,0.176,north,4.2,No
2016/08/11,08:00,0.421,0.248,0.435,0.397,0.373,0.205,0.177,north,3.9,No
2016/08/11,08:10,0.422,0.249,0.436,0.391,0.370,0.206,0.175,north-northwest,2.8,No
2016/08/11,08:20,0.426,0.247,0.439,0.392,0.366,0.206,0.174,north,4.2,No
2016/08/11,08:30,0.425,0.246,0.438,0.398,0.370,0.206,0.173,north,4.4,No
2016/08/11,08:40,0.422,0.246,0.436,0.395,0.375,0.205,0.172,north,4.2,No
2016/08/11,08:50,0.418,0.248,0.433,0.393,0.373,0.204,0.173,north,3.6,No
2016/08/11,09:00,0.423,0.249,0.438,0.392,0.371,0.206,0.175,north,3.3,No
2016/08/11,09:10,0.426,0.249,0.441,0.396,0.369,0.206,0.176,north,3.6,No
2016/08/11,09:20,0.425,0.249,0.440,0.398,0.369,0.206,0.175,north-northeast,4.7,No
2016/08/11,09:30,0.421,0.247,0.436,0.396,0.366,0.205,0.176,north-northeast,4.4,No
2016/08/11,09:40,0.419,0.246,0.434,0.393,0.369,0.205,0.174,north-northeast,5.8,No
2016/08/11,09:50,0.424,0.247,0.433,0.391,0.373,0.205,0.173,north-northeast,6.6,No
2016/08/11,10:00,0.427,0.247,0.441,0.393,0.374,0.205,0.174,north-northeast,7.2,No
2016/08/11,10:10,0.425,0.247,0.440,0.396,0.371,0.205,0.174,north-northeast,6.2,No
2016/08/11,10:20,0.422,0.249,0.439,0.399,0.369,0.205,0.173,north,5.0,No
2016/08/11,10:30,0.421,0.249,0.436,0.397,0.369,0.207,0.173,north-northeast,5.6,No
2016/08/11,10:40,0.427,0.249,0.436,0.395,0.373,0.206,0.176,north-northeast,6.0,No
2016/08/11,10:50,0.427,0.248,0.442,0.392,0.374,0.206,0.177,north-northeast,6.7,No
2016/08/11,11:00,0.423,0.247,0.440,0.395,0.374,0.205,0.175,northeast,5.7,No
2016/08/11,11:10,0.421,0.247,0.439,0.399,0.371,0.205,0.176,north-northeast,5.0,No
2016/08/11,11:20,0.421,0.247,0.437,0.399,0.369,0.205,0.176,northeast,5.4,No
2016/08/11,11:30,0.422,0.247,0.436,0.397,0.371,0.206,0.176,northeast,5.6,No
2016/08/11,11:40,0.420,0.246,0.435,0.398,0.370,0.206,0.176,northeast,4.8,No
2016/08/11,11:50,0.422,0.247,0.436,0.397,0.373,0.206,0.175,northeast,5.0,No
2016/08/11,12:00,0.423,0.247,0.438,0.398,0.372,0.207,0.176,northeast,6.1,No
2016/08/11,12:10,0.422,0.248,0.439,0.398,0.370,0.207,0.175,northeast,5.2,No
2016/08/11,12:20,0.423,0.249,0.440,0.397,0.371,0.205,0.175,north-northeast,4.4,No
2016/08/11,12:30,0.421,0.250,0.440,0.398,0.372,0.206,0.175,northeast,5.4,No
2016/08/11,12:40,0.422,0.249,0.440,0.399,0.373,0.206,0.175,northeast,4.7,No
2016/08/11,12:50,0.424,0.248,0.439,0.398,0.372,0.206,0.175,northeast,4.6,No
2016/08/11,13:00,0.422,0.249,0.439,0.397,0.372,0.206,0.176,northeast,4.1,No
2016/08/11,13:10,0.423,0.249,0.441,0.396,0.371,0.207,0.176,northeast,3.9,No
2016/08/11,13:20,0.430,0.250,0.440,0.398,0.372,0.206,0.176,northeast,3.9,No
2016/08/11,13:30,0.428,0.249,0.441,0.397,0.373,0.206,0.176,northeast,3.3,No
2016/08/11,13:40,0.427,0.249,0.440,0.398,0.374,0.208,0.176,northeast,3.9,No
2016/08/11,13:50,0.425,0.248,0.442,0.396,0.373,0.207,0.175,north-northeast,4.2,No
2016/08/11,14:00,0.425,0.250,0.439,0.397,0.374,0.206,0.175,northeast,3.5,No
2016/08/11,14:10,0.424,0.249,0.440,0.400,0.374,0.205,0.176,north-northeast,4.4,No
2016/08/11,14:20,0.423,0.249,0.440,0.398,0.374,0.207,0.176,northeast,4.7,No
2016/08/11,14:30,0.423,0.249,0.439,0.398,0.374,0.207,0.177,northeast,4.4,No
2016/08/11,14:40,0.423,0.249,0.441,0.397,0.372,0.208,0.175,northeast,4.0,No
2016/08/11,14:50,0.422,0.249,0.439,0.398,0.373,0.207,0.176,north-northeast,3.4,No
2016/08/11,15:00,0.423,0.249,0.439,0.396,0.373,0.206,0.176,northeast,3.0,No
2016/08/11,15:10,0.425,0.249,0.438,0.395,0.372,0.205,0.175,northeast,2.5,No
2016/08/11,15:20,0.430,0.251,0.437,0.397,0.372,0.206,0.175,northeast,2.8,No
2016/08/11,15:30,0.428,0.249,0.436,0.395,0.372,0.206,0.174,east-northeast,1.8,No
2016/08/11,15:40,0.426,0.249,0.437,0.395,0.371,0.205,0.175,east-northeast,2.5,No
2016/08/11,15:50,0.424,0.249,0.437,0.401,0.373,0.206,0.174,east-northeast,2.5,No
2016/08/11,16:00,0.423,0.248,0.438,0.402,0.372,0.206,0.176,northeast,2.5,No
2016/08/11,16:10,0.426,0.247,0.439,0.398,0.372,0.206,0.177,east-northeast,1.4,No
2016/08/11,16:20,0.430,0.251,0.436,0.397,0.372,0.206,0.176,east,1.3,No
2016/08/11,16:30,0.428,0.251,0.443,0.397,0.373,0.205,0.175,east-northeast,1.9,No
2016/08/11,16:40,0.426,0.249,0.445,0.402,0.373,0.204,0.176,northeast,1.0,No
2016/08/11,16:50,0.423,0.250,0.442,0.401,0.373,0.205,0.177,east-northeast,1.4,No
2016/08/11,17:00,0.423,0.251,0.438,0.398,0.370,0.205,0.176,east,1.4,No
2016/08/11,17:10,0.428,0.251,0.438,0.396,0.371,0.206,0.175,east-southeast,1.8,No
2016/08/11,17:20,0.426,0.248,0.444,0.402,0.371,0.206,0.176,northeast,1.9,No
2016/08/11,17:30,0.424,0.249,0.443,0.399,0.370,0.206,0.177,northeast,1.9,No
2016/08/11,17:40,0.423,0.251,0.440,0.399,0.371,0.206,0.177,east-northeast,2.0,No
2016/08/11,17:50,0.429,0.248,0.437,0.398,0.373,0.206,0.175,east-northeast,1.8,No
2016/08/11,18:00,0.427,0.248,0.442,0.402,0.377,0.206,0.177,east-northeast,2.0,No
2016/08/11,18:10,0.424,0.251,0.444,0.398,0.375,0.206,0.176,northeast,1.2,No
2016/08/11,18:20,0.426,0.249,0.440,0.396,0.371,0.205,0.175,southeast,1.2,No
2016/08/11,18:30,0.428,0.247,0.438,0.400,0.373,0.206,0.176,east-southeast,0.9,No
2016/08/11,18:40,0.426,0.250,0.442,0.401,0.376,0.206,0.176,southeast,1.0,No
2016/08/11,18:50,0.424,0.249,0.445,0.398,0.374,0.205,0.175,east-northeast,0.7,No
2016/08/11,19:00,0.428,0.248,0.439,0.397,0.371,0.205,0.176,east-northeast,1.5,No
2016/08/11,19:10,0.427,0.251,0.439,0.401,0.375,0.206,0.175,east,1.0,No
2016/08/11,19:20,0.423,0.251,0.444,0.397,0.375,0.205,0.174,east-southeast,0.7,No
2016/08/11,19:30,0.427,0.249,0.442,0.397,0.371,0.206,0.176,southeast,1.0,No
2016/08/11,19:40,0.428,0.251,0.437,0.400,0.372,0.205,0.177,south-southeast,0.6,No
2016/08/11,19:50,0.424,0.251,0.441,0.400,0.375,0.206,0.174,-,CALM,No
2016/08/11,20:00,0.425,0.249,0.443,0.397,0.372,0.207,0.176,-,CALM,No
2016/08/11,20:10,0.428,0.251,0.439,0.398,0.370,0.206,0.176,west-northwest,0.7,No
2016/08/11,20:20,0.425,0.250,0.439,0.403,0.376,0.206,0.174,north,0.8,No
2016/08/11,20:30,0.424,0.249,0.443,0.400,0.373,0.207,0.177,-,CALM,No
2016/08/11,20:40,0.429,0.251,0.441,0.397,0.372,0.205,0.176,west,1.0,No
2016/08/11,20:50,0.425,0.251,0.438,0.401,0.374,0.206,0.176,north-northwest,1.0,No
2016/08/11,21:00,0.423,0.249,0.443,0.401,0.374,0.206,0.177,northwest,1.0,No
2016/08/11,21:10,0.427,0.251,0.442,0.398,0.371,0.206,0.176,northwest,1.0,No
2016/08/11,21:20,0.426,0.251,0.439,0.401,0.373,0.205,0.175,west-northwest,0.7,No
2016/08/11,21:30,0.426,0.250,0.444,0.400,0.373,0.205,0.177,-,CALM,No
2016/08/11,21:40,0.428,0.251,0.445,0.398,0.372,0.206,0.176,-,CALM,No
2016/08/11,21:50,0.426,0.251,0.439,0.401,0.374,0.207,0.175,-,CALM,No
2016/08/11,22:00,0.427,0.249,0.443,0.400,0.375,0.206,0.176,-,CALM,No
2016/08/11,22:10,0.427,0.252,0.441,0.397,0.370,0.206,0.175,-,CALM,No
2016/08/11,22:20,0.423,0.250,0.439,0.400,0.375,0.206,0.176,-,CALM,No
2016/08/11,22:30,0.426,0.250,0.445,0.399,0.372,0.207,0.175,-,CALM,No
2016/08/11,22:40,0.427,0.251,0.441,0.400,0.373,0.208,0.176,-,CALM,No
2016/08/11,22:50,0.425,0.249,0.442,0.401,0.376,0.206,0.176,-,CALM,No
2016/08/11,23:00,0.428,0.251,0.444,0.397,0.371,0.206,0.176,-,CALM,No
2016/08/11,23:10,0.427,0.250,0.440,0.403,0.376,0.207,0.177,north,0.5,No
2016/08/11,23:20,0.425,0.250,0.444,0.400,0.373,0.207,0.176,-,CALM,No
2016/08/11,23:30,0.427,0.250,0.443,0.397,0.373,0.207,0.176,west,0.5,No
2016/08/11,23:40,0.426,0.250,0.442,0.402,0.374,0.205,0.177,northwest,0.8,No
2016/08/11,23:50,0.428,0.252,0.443,0.397,0.372,0.207,0.177,north-northwest,0.6,No
